Probability
0 10 61 61 61 65 65 61 61 65 65 65 68 65 65 74 74 74 81 74 74 74 77 81 81 77 81 77 74 84 77 74 68 74 77 77 77 81 94 81 71 65 55
6 26 65 65 55 65 61 61 58 52 55 55 58 58 58 68 71 74 74 71 74 65 77 81 81 84 81 77 74 74 81 74 68 71 74 77 77 90 74 68 71 58 58
19 45 61 68 58 55 52 45 42 45 55 58 58 65 65 61 65 65 68 71 65 65 71 74 81 77 84 87 81 77 81 74 74 74 65 42 48 77 77 74 71 71 55
29 35 48 65 61 58 58 52 45 45 45 48 45 42 42 45 52 55 65 71 65 61 58 61 71 71 84 84 81 74 71 77 71 71 35 32 35 68 74 77 68 65 55
26 29 45 61 55 52 48 45 39 39 42 42 35 32 32 32 32 39 48 55 58 55 58 58 61 68 81 81 77 74 68 71 68 39 23 16 16 65 77 71 77 71 65
16 26 35 55 42 35 35 29 26 32 26 29 29 29 26 26 26 32 35 35 39 42 48 58 65 61 65 68 77 74 65 65 52 23 19 10 23 61 81 81 74 71 61
16 23 35 42 35 32 35 29 26 19 26 13 13 10 13 19 26 29 29 29 32 35 39 45 58 61 55 58 65 77 74 71 39 19 13 13 23 68 77 81 68 77 61
10 16 23 35 32 29 26 23 16 10 6 10 6 6 10 16 19 16 19 19 23 26 23 39 42 39 55 65 65 68 68 74 35 26 13 10 42 71 81 77 71 71 71
10 13 16 16 16 23 23 16 16 10 10 10 0 3 6 3 3 3 3 6 10 6 23 26 32 39 45 58 52 58 58 68 35 16 10 10 48 77 77 71 74 74 71
3 3 6 10 10 6 13 19 16 10 3 0 0 0 0 0 0 0 3 3 6 10 16 26 29 29 32 39 42 52 58 42 29 10 6 16 65 71 71 77 77 77 74
0 0 0 6 3 3 0 0 3 3 3 0 0 0 0 0 0 0 0 0 0 6 10 16 23 26 29 35 39 42 35 16 6 10 6 23 71 61 68 77 81 74 81
0 0 0 0 3 0 0 0 0 0 0 0 0 0 0 0 0 0 0 0 3 6 6 10 16 13 13 3 13 23 13 10 13 10 6 45 65 65 68 74 77 77 81
0 0 0 0 0 0 0 0 0 0 0 0 0 0 0 0 0 0 0 0 0 0 0 3 3 6 0 0 0 0 0 3 10 6 6 52 71 71 71 68 71 81 81
0 0 0 0 0 0 0 0 0 0 0 0 0 0 0 0 0 0 0 0 0 0 0 0 0 0 0 0 0 0 0 0 0 3 6 48 68 74 65 61 61 77 81
0 0 0 0 0 0 0 0 0 0 0 0 0 0 0 0 0 0 0 0 0 0 0 0 0 0 0 0 0 0 0 0 0 0 0 16 58 65 61 65 61 71 74
0 0 0 0 0 0 0 0 0 0 0 0 0 0 0 0 0 0 0 0 0 0 0 0 0 0 0 0 0 0 0 0 0 0 0 3 26 55 61 52 68 61 68
0 0 0 0 0 0 0 0 0 0 0 0 0 0 0 0 0 0 0 0 0 0 0 0 0 0 0 0 0 0 0 0 0 0 0 3 6 29 45 55 71 61 68
0 0 0 0 0 0 0 0 0 0 0 0 0 0 0 0 0 0 0 0 0 0 0 0 0 0 0 0 0 0 0 0 0 0 0 0 3 3 19 35 65 71 61
0 0 0 0 0 0 0 0 0 0 0 0 0 0 0 0 0 0 0 0 0 0 0 0 0 0 0 0 0 0 0 0 0 0 0 0 0 3 3 16 29 55 71
0 0 0 0 0 0 0 0 0 0 0 0 0 0 0 0 0 0 0 0 0 0 0 0 0 0 0 0 0 0 0 0 0 0 0 0 0 0 3 6 13 23 42
0 0 0 0 0 0 0 0 0 0 0 0 0 0 0 0 0 0 0 0 0 0 0 0 0 0 0 0 0 0 0 0 0 0 0 0 0 0 0 3 3 6 16
0 0 0 0 0 0 0 0 0 0 0 0 0 0 0 0 0 0 0 0 0 0 0 0 0 0 0 0 0 0 0 0 0 0 0 0 0 0 0 0 3 3 3
0 0 0 0 0 0 0 0 0 0 0 0 0 0 0 0 0 0 0 0 0 0 0 0 0 0 0 0 0 0 0 0 0 0 0 0 0 0 0 0 0 3 3
0 0 0 0 0 0 0 0 0 0 0 0 0 0 0 0 0 0 0 0 0 0 0 0 0 0 0 0 0 0 0 0 0 0 0 0 0 0 0 0 0 0 3
0 0 0 0 0 0 0 0 0 0 0 0 0 0 0 0 0 0 0 0 0 0 0 0 0 0 0 0 0 0 0 0 0 0 0 0 0 0 0 0 0 0 0
0 0 0 0 0 0 0 0 0 0 0 0 0 0 0 0 0 0 0 0 0 0 0 0 0 0 0 0 0 0 0 0 0 0 0 0 0 0 0 0 0 0 0
Height
5865 5865 5865 5865 5865 5865 5864 5864 5864 5863 5863 5862 5862 5862 5862 5862 5862 5862 5862 5862 5863 5863 5864 5864 5865 5866 5867 5868 5869 5869 5870 5870 5870 5870 5871 5871 5871 5871 5871 5870 5870 5870 5869
5864 5864 5864 5864 5864 5864 5863 5863 5862 5862 5861 5861 5861 5860 5860 5860 5860 5860 5860 5860 5860 5861 5861 5862 5863 5864 5865 5865 5866 5867 5868 5868 5869 5869 5869 5870 5870 5870 5870 5870 5869 5869 5868
5863 5863 5863 5863 5863 5862 5862 5861 5861 5860 5860 5859 5859 5858 5858 5857 5857 5857 5857 5857 5858 5858 5859 5859 5860 5861 5862 5863 5864 5865 5865 5866 5867 5867 5868 5868 5869 5869 5869 5869 5869 5868 5868
5862 5862 5862 5862 5861 5861 5860 5860 5859 5858 5858 5857 5856 5856 5855 5855 5854 5854 5854 5855 5855 5855 5855 5856 5857 5857 5858 5860 5861 5862 5863 5863 5864 5865 5866 5867 5867 5867 5868 5868 5868 5867 5867
5861 5861 5861 5861 5860 5860 5859 5858 5857 5856 5855 5855 5854 5853 5852 5852 5852 5851 5851 5851 5852 5852 5852 5853 5853 5854 5855 5856 5858 5859 5859 5861 5862 5863 5864 5865 5865 5866 5866 5867 5867 5867 5867
5860 5860 5860 5859 5859 5858 5857 5856 5855 5854 5853 5852 5851 5850 5850 5849 5848 5848 5848 5848 5848 5848 5849 5849 5850 5850 5852 5853 5854 5855 5856 5857 5859 5860 5861 5862 5863 5864 5865 5865 5866 5866 5866
5859 5859 5859 5858 5857 5857 5856 5855 5853 5852 5851 5850 5849 5848 5847 5846 5846 5845 5844 5844 5844 5844 5845 5845 5846 5846 5847 5849 5850 5852 5853 5854 5856 5857 5859 5860 5861 5862 5863 5864 5865 5865 5865
5858 5858 5857 5857 5856 5855 5854 5853 5852 5851 5849 5848 5847 5845 5844 5843 5843 5842 5841 5841 5840 5840 5841 5841 5841 5842 5843 5845 5846 5848 5849 5851 5853 5854 5856 5858 5859 5860 5862 5863 5864 5864 5865
5856 5856 5856 5855 5855 5854 5853 5851 5850 5849 5848 5846 5844 5843 5842 5841 5840 5839 5838 5837 5837 5837 5837 5837 5837 5838 5839 5841 5842 5844 5845 5847 5849 5851 5853 5855 5857 5858 5860 5861 5863 5864 5864
5855 5855 5855 5854 5854 5853 5852 5850 5849 5848 5846 5844 5843 5841 5840 5838 5837 5836 5834 5834 5833 5833 5833 5833 5833 5834 5835 5836 5838 5840 5841 5843 5846 5848 5850 5852 5854 5856 5858 5860 5861 5862 5863
5854 5854 5854 5853 5852 5851 5850 5849 5848 5846 5844 5843 5841 5839 5837 5835 5834 5832 5831 5830 5829 5829 5828 5828 5829 5829 5830 5832 5833 5835 5837 5839 5842 5844 5846 5849 5851 5853 5856 5857 5859 5861 5862
5854 5853 5853 5852 5852 5850 5849 5848 5846 5844 5843 5841 5839 5837 5835 5833 5831 5829 5828 5826 5825 5825 5824 5824 5824 5825 5826 5827 5829 5831 5833 5835 5838 5840 5843 5845 5848 5850 5853 5855 5857 5859 5861
5853 5853 5852 5852 5851 5850 5848 5847 5845 5843 5841 5839 5836 5834 5832 5830 5828 5826 5824 5822 5821 5820 5820 5819 5820 5820 5821 5822 5824 5826 5828 5831 5833 5836 5839 5842 5845 5847 5850 5852 5855 5857 5859
5852 5852 5851 5851 5850 5849 5847 5845 5843 5841 5839 5836 5834 5831 5829 5827 5825 5822 5820 5818 5817 5816 5815 5815 5815 5815 5816 5818 5819 5821 5823 5826 5828 5831 5834 5838 5841 5844 5847 5849 5852 5854 5857
5851 5851 5851 5850 5849 5847 5846 5844 5842 5840 5837 5834 5832 5829 5826 5824 5821 5819 5817 5814 5813 5811 5810 5810 5810 5810 5811 5813 5814 5816 5819 5821 5824 5827 5830 5834 5837 5840 5843 5846 5849 5852 5854
5850 5850 5850 5849 5848 5846 5845 5843 5840 5838 5835 5832 5829 5826 5824 5821 5818 5815 5813 5811 5809 5807 5806 5805 5805 5806 5806 5808 5809 5811 5814 5816 5819 5822 5826 5829 5833 5836 5840 5843 5846 5849 5852
5849 5849 5848 5848 5846 5845 5843 5841 5839 5836 5833 5830 5827 5824 5821 5818 5815 5812 5810 5807 5805 5803 5801 5801 5801 5801 5802 5803 5804 5806 5809 5812 5815 5818 5821 5825 5828 5832 5836 5839 5842 5846 5849
5848 5848 5847 5846 5845 5844 5842 5839 5837 5834 5831 5828 5825 5822 5819 5816 5812 5809 5806 5803 5801 5799 5798 5797 5796 5796 5797 5798 5800 5801 5804 5806 5809 5813 5816 5820 5824 5828 5832 5835 5839 5842 5845
5847 5847 5846 5845 5844 5842 5840 5838 5835 5832 5829 5826 5823 5820 5816 5813 5810 5807 5803 5800 5798 5796 5794 5793 5792 5792 5792 5793 5795 5797 5799 5801 5805 5808 5812 5815 5819 5823 5827 5831 5835 5838 5842
5846 5845 5845 5844 5842 5840 5838 5836 5834 5831 5828 5824 5821 5817 5814 5811 5807 5804 5800 5797 5795 5792 5790 5789 5788 5788 5788 5789 5790 5792 5794 5797 5800 5803 5807 5811 5815 5819 5823 5827 5831 5834 5838
5844 5844 5843 5842 5841 5839 5837 5835 5832 5829 5826 5823 5819 5816 5812 5809 5805 5801 5798 5795 5792 5789 5787 5785 5784 5784 5784 5785 5786 5788 5790 5792 5795 5799 5802 5806 5810 5814 5818 5823 5827 5831 5834
5843 5842 5842 5841 5839 5837 5835 5833 5831 5828 5825 5822 5818 5814 5810 5807 5803 5799 5796 5792 5789 5786 5784 5782 5781 5781 5781 5782 5783 5784 5786 5789 5791 5794 5798 5802 5806 5810 5814 5818 5822 5826 5830
5841 5841 5840 5839 5838 5836 5834 5832 5830 5827 5823 5820 5817 5813 5809 5805 5801 5798 5794 5790 5787 5784 5782 5780 5778 5778 5778 5779 5780 5781 5783 5785 5788 5791 5794 5797 5801 5806 5809 5814 5818 5822 5826
5840 5839 5839 5837 5836 5835 5833 5831 5828 5826 5823 5819 5816 5812 5808 5804 5800 5796 5793 5789 5786 5783 5780 5778 5776 5776 5776 5776 5777 5778 5780 5782 5785 5787 5790 5793 5797 5801 5805 5809 5813 5817 5821
5838 5838 5837 5836 5835 5833 5831 5829 5827 5825 5822 5818 5815 5811 5807 5804 5800 5795 5792 5788 5785 5782 5779 5777 5775 5774 5774 5774 5775 5776 5777 5779 5781 5784 5787 5790 5794 5797 5801 5805 5809 5813 5817
5836 5836 5835 5834 5833 5832 5830 5828 5826 5823 5820 5817 5814 5810 5807 5803 5799 5795 5791 5787 5784 5781 5778 5776 5774 5773 5773 5773 5773 5774 5775 5776 5778 5781 5784 5787 5790 5794 5797 5801 5804 5808 5812
Wind_Speed
3 4 4 5 5 6 7 7 8 8 8 9 9 10 11 12 12 13 14 14 14 15 15 14 15 15 15 14 14 14 13 12 11 10 10 9 9 8 7 7 6 5 5
4 4 5 5 6 7 7 8 9 9 10 11 11 12 13 13 14 14 15 15 15 16 17 16 16 16 16 16 15 15 14 13 12 11 10 9 9 8 7 7 6 5 4
4 5 6 6 6 7 8 8 9 10 11 12 13 14 14 15 16 16 16 16 17 17 18 18 18 18 17 17 16 16 15 14 13 12 11 9 9 8 7 6 5 4 3
5 5 6 6 6 7 8 9 10 11 12 13 14 15 15 16 17 17 17 17 17 18 19 19 19 19 18 18 17 16 16 15 14 13 11 10 9 8 7 6 5 4 3
4 4 5 6 7 8 9 11 11 12 13 14 15 15 16 16 17 18 18 18 18 19 19 20 20 20 19 18 17 17 17 16 15 14 12 11 9 8 7 5 4 3 2
4 4 5 6 7 8 9 11 11 12 13 13 14 15 15 16 16 17 18 19 20 20 20 21 22 22 20 19 18 17 17 17 15 14 13 12 10 8 7 5 4 3 2
4 5 6 7 8 9 10 10 11 11 11 12 13 13 14 14 15 16 17 18 19 20 21 22 22 22 21 20 19 18 18 17 16 15 14 13 11 9 7 5 4 3 3
5 6 7 7 7 8 9 9 9 10 10 11 12 12 13 13 15 16 17 18 19 19 20 21 22 22 21 21 20 19 18 18 16 15 14 13 12 10 8 6 5 4 3
5 6 6 5 6 7 8 8 9 9 10 11 12 12 13 14 14 15 16 17 17 18 19 20 21 21 21 22 21 19 19 18 17 16 15 14 12 11 9 8 6 5 4
5 5 4 4 5 6 7 8 8 10 10 11 12 13 13 14 14 15 15 16 17 17 18 19 19 20 21 21 21 20 20 19 18 18 17 16 14 12 11 9 8 7 6
3 3 2 4 5 6 7 8 9 10 11 12 13 13 14 14 14 15 15 16 17 17 18 19 19 19 20 20 20 20 20 21 20 19 18 17 16 14 13 12 10 9 8
3 2 2 3 5 6 8 9 10 11 12 13 13 14 14 15 15 15 15 16 16 17 18 19 19 20 20 20 21 20 20 21 21 20 19 18 17 15 14 13 12 11 10
2 2 2 4 5 6 8 10 11 12 12 13 14 15 15 15 15 16 16 16 17 17 18 19 19 20 20 20 21 20 21 21 21 21 20 20 19 17 16 14 14 13 12
2 2 2 4 5 7 9 10 11 12 13 14 15 15 15 16 16 16 16 17 17 17 17 18 18 19 20 20 20 20 20 21 21 22 21 21 20 19 18 16 15 14 14
2 2 3 4 6 7 9 11 12 13 14 14 15 15 16 16 17 17 16 16 17 17 17 17 17 18 19 20 20 20 21 21 21 22 23 22 21 20 19 19 17 16 15
3 3 3 5 6 8 10 11 12 13 14 15 15 15 16 16 17 17 17 16 16 16 16 16 16 17 18 19 20 20 21 21 22 22 23 23 23 22 21 20 19 18 17
3 3 4 5 6 8 10 11 13 13 14 15 16 16 16 16 16 17 17 16 16 15 15 15 16 16 17 18 19 20 21 21 23 22 23 23 23 24 23 20 20 20 19
3 3 4 5 6 8 10 12 13 14 15 16 16 16 16 17 17 17 17 16 15 15 15 15 15 15 16 17 18 19 20 21 22 23 23 24 25 25 24 23 21 21 21
3 3 4 5 6 8 10 12 14 14 15 16 17 17 17 17 17 17 17 17 16 15 14 14 14 14 14 16 17 18 19 20 22 23 24 24 25 25 25 24 23 22 22
4 4 4 6 7 8 10 12 14 15 16 17 17 18 17 18 18 18 17 17 16 15 13 13 13 13 13 14 15 17 18 19 21 23 24 25 26 25 25 24 24 23 23
4 4 5 6 7 8 10 12 14 15 17 17 18 18 18 18 18 18 17 17 16 15 13 12 12 12 12 13 14 15 17 19 21 23 24 25 25 25 25 26 25 24 24
4 5 5 6 7 8 10 12 14 15 17 18 18 18 18 18 18 18 17 16 16 14 13 12 11 10 11 11 12 13 16 17 19 21 24 25 25 25 26 26 26 25 25
5 5 5 6 7 8 10 11 13 15 17 17 17 18 19 19 18 18 17 16 15 14 13 11 10 9 9 10 10 12 14 16 18 19 22 23 24 25 25 26 26 26 25
5 6 6 6 7 8 10 11 13 15 16 17 17 18 18 18 18 18 17 16 15 13 12 11 9 8 8 9 9 10 12 14 17 17 19 21 23 24 24 25 26 26 26
6 6 6 6 7 8 9 11 13 14 16 17 17 17 18 18 19 18 17 16 15 13 12 11 8 7 6 7 8 9 10 12 14 16 18 20 21 23 24 24 25 25 25
6 6 7 7 7 8 9 11 13 14 15 16 17 17 17 18 19 18 17 16 15 14 12 10 8 6 5 5 6 8 9 11 13 15 17 18 19 21 22 23 23 24 25
Wind_Direction
296 290 297 300 301 302 302 303 300 294 290 288 289 285 282 278 277 279 276 273 272 270 265 264 264 265 267 270 275 281 285 289 293 296 300 304 306 307 312 318 317 315 311
292 286 292 297 302 303 304 302 299 292 291 290 290 288 284 280 277 277 276 274 273 272 269 266 264 265 266 269 272 276 279 283 286 288 290 295 299 301 304 314 314 310 313
294 295 293 297 303 304 304 305 303 295 294 293 291 290 286 280 278 278 276 276 273 271 270 267 265 266 266 267 270 272 274 277 280 280 282 285 293 296 297 306 309 312 312
291 296 294 296 301 303 306 307 303 300 298 297 294 291 288 284 280 278 276 276 274 272 271 270 268 265 264 266 267 268 269 271 274 275 276 276 282 287 290 296 301 309 306
291 293 292 296 301 305 305 306 306 304 301 299 296 292 290 288 285 281 277 275 273 272 272 273 270 267 264 264 265 267 267 268 267 269 269 268 272 276 279 285 290 295 296
287 292 297 302 306 309 310 310 310 308 306 303 300 295 291 289 287 283 278 275 273 271 271 272 270 267 263 262 262 264 265 264 263 264 265 263 263 265 264 272 278 276 283
288 293 298 302 306 310 312 314 315 313 311 308 305 301 297 293 290 286 283 278 276 273 271 269 269 267 262 259 259 260 261 260 260 259 261 256 254 254 254 256 259 256 263
285 291 297 301 309 315 319 321 321 320 319 316 313 309 303 297 292 288 285 282 279 276 272 270 269 265 263 260 257 257 257 257 256 254 252 249 246 245 244 245 245 240 241
288 296 306 311 319 324 327 330 330 328 326 324 320 316 311 304 298 292 287 283 280 277 274 272 269 267 263 260 256 253 253 253 253 251 249 245 240 236 234 235 234 231 229
283 297 314 326 328 333 336 336 333 331 329 326 322 318 315 310 304 298 291 286 281 277 273 271 269 268 264 260 257 253 250 249 249 246 245 240 234 231 231 229 228 225 221
276 298 325 336 339 340 338 335 333 332 329 326 323 320 316 312 309 303 297 291 285 279 273 270 268 266 264 260 255 254 250 245 243 242 240 235 233 230 231 227 223 220 215
255 289 330 341 342 339 337 335 334 331 328 327 324 320 317 313 310 306 300 295 288 282 276 271 266 264 263 259 255 252 250 244 240 238 236 233 232 230 228 224 219 217 213
252 302 334 341 337 338 339 338 335 331 329 327 325 322 319 315 311 307 301 296 290 285 279 274 268 263 261 258 255 251 247 244 239 235 233 232 231 232 228 224 218 216 213
256 295 320 332 334 339 340 338 336 332 330 328 325 323 320 317 313 309 304 299 293 288 283 277 270 262 258 255 253 250 246 243 239 235 232 230 229 229 226 224 218 214 213
251 277 306 323 333 339 340 338 334 333 332 331 328 325 322 320 317 314 310 305 299 292 286 279 271 264 258 254 252 248 243 240 237 233 231 229 226 225 224 223 219 215 213
238 269 302 321 331 335 337 338 337 335 335 334 332 329 327 324 322 319 314 309 304 297 289 281 272 265 258 253 251 246 242 238 235 231 229 227 225 223 223 223 222 219 216
235 267 301 318 327 334 336 339 340 341 339 337 336 334 332 328 326 324 320 314 309 301 293 285 275 267 259 253 249 244 240 236 233 230 227 225 225 223 223 223 220 219 217
243 287 314 321 329 337 341 343 345 346 344 341 338 336 334 333 331 328 326 320 314 306 296 288 279 268 261 254 248 243 239 235 230 229 227 224 224 223 222 224 222 220 216
248 292 315 323 333 341 345 348 349 349 346 344 342 339 337 335 333 331 329 326 320 312 301 290 282 271 263 255 248 242 238 234 229 227 226 224 222 221 222 223 222 220 215
256 289 310 323 332 339 345 349 350 349 347 346 344 342 340 339 336 333 331 329 325 317 307 296 285 273 264 256 248 240 235 232 226 224 223 223 221 220 220 221 220 218 216
266 291 309 322 333 341 346 350 351 350 348 347 345 344 343 341 338 335 333 332 329 323 314 302 290 276 267 258 249 239 233 231 226 222 221 221 221 219 219 221 221 220 217
273 291 306 321 333 340 345 349 350 350 349 348 347 346 345 343 342 340 338 335 332 328 320 311 297 282 270 258 249 240 234 229 223 221 221 220 219 218 218 219 219 219 218
273 289 303 320 331 339 344 348 349 350 350 349 349 349 348 346 345 345 343 341 337 333 328 319 307 288 272 260 251 244 237 231 227 223 218 217 217 217 218 218 218 218 219
273 287 301 316 327 336 342 346 348 350 350 349 349 351 351 349 349 348 347 347 345 341 337 330 317 296 275 261 254 248 240 233 229 224 220 217 217 216 217 219 219 219 219
271 286 299 310 320 330 337 342 346 347 349 349 349 351 352 351 351 350 349 350 349 346 341 336 328 309 285 263 252 247 239 234 229 226 224 219 217 217 218 219 220 219 220
270 283 297 306 314 324 332 338 342 345 347 349 350 350 351 352 353 352 351 352 351 349 345 340 333 320 298 271 256 248 240 235 231 227 226 222 219 218 220 220 221 221 221